Flag for U.S.A. Weather past 2 weeks in Fresno, California, U.S.A.

Now
51 °F

Fog.


Feels Like: 51 °F
Forecast: 51 / 61 °F
Wind: No wind

Location: Fresno Air Terminal

Current Time: Dec 21, 2014 at 2:12:40 AM

Latest Report: Dec 21, 2014 at 12:53 AM


Visibility: 5 mi

Pressure: 30.25 "Hg

Humidity: 92%

Dew point: 49 °F

Location of FresnoLocation

Historic Weather in Fresno — Graph

°F

Fresno temperature yesterday

Maximum temperature yesterday: 61 °F (at 1:53 PM)
Minimum temperature yesterday: 51 °F (at 10:53 PM)
Average temperature yesterday: 55 °F

Past Weeks' High & Low Weather Summary

 TemperatureHumidityPressure
High70 °F (Dec 6, 1:53 PM)100% (Dec 8, 11:53 PM)30.27 "Hg (Dec 8, 11:53 PM)
Low40 °F (Dec 15, 12:53 AM)49% (Dec 8, 1:53 PM)29.60 "Hg (Dec 11, 9:53 PM)
Average52 °F83%30.09 "Hg
* Reported Dec 6 12:53 AM — Dec 21 12:53 AM, Fresno, Weather by CustomWeather, © 2014

Note: Actual official high and low records may vary slightly from our data, if they occured in-between our weather recording intervals... More about our weather records

Advertising

Fresno weather history for previous 24 hours

 ConditionsComfort  
Time TempWeatherWind HumidityBarometerVisibility
12:53 AM
Dec 21
51 °FFog.No wind92%30.25 "Hg5 mi
11:53 PM
Dec 20
51 °FFog.No wind96%30.27 "Hg4 mi
10:53 PM51 °FFog.6 mph96%30.27 "Hg4 mi
9:53 PM54 °FPassing clouds.5 mph90%30.27 "Hg8 mi
8:53 PM53 °FPassing clouds.5 mph93%30.25 "Hg10 mi
7:53 PM54 °FPassing clouds.7 mph90%30.24 "Hg10 mi
6:53 PM56 °FPartly cloudy.5 mph87%30.24 "Hg10 mi
5:53 PM58 °FPassing clouds.5 mph78%30.21 "Hg10 mi
4:53 PM58 °FPartly cloudy.7 mph78%30.19 "Hg10 mi
3:53 PM60 °FBroken clouds.8 mph67%30.20 "Hg10 mi
2:53 PM61 °FOvercast.10 mph65%30.20 "Hg10 mi
1:53 PM61 °FPartly sunny.No wind60%30.17 "Hg10 mi
12:53 PM60 °FBroken clouds.No wind62%30.19 "Hg10 mi
11:53 AM58 °FOvercast.No wind65%30.21 "Hg10 mi
10:53 AM58 °FMostly cloudy.No wind67%30.23 "Hg10 mi
9:53 AM56 °FMostly cloudy.No wind72%30.22 "Hg10 mi
8:53 AM54 °FMostly cloudy.3 mph77%30.20 "Hg10 mi
7:53 AM53 °FOvercast.No wind77%30.19 "Hg10 mi
6:53 AM53 °FMostly cloudy.5 mph77%30.18 "Hg10 mi
5:53 AM53 °FOvercast.6 mph77%30.17 "Hg10 mi
4:53 AM52 °FOvercast.7 mph80%30.16 "Hg10 mi
3:53 AM52 °FOvercast.5 mph80%30.16 "Hg10 mi
2:53 AM52 °FOvercast.6 mph80%30.17 "Hg10 mi
Weather by CustomWeather, © 2014

See weather overviewHow to use our weather pages